YAOGAN-30 X (48423 NORAD) Tracking and Keplerian Element Data

This shows tracking and keplerian element data for the satellite.

Feedback or suggestion? Click here.




ElementValue
Catalog48423
NameYAOGAN-30 X
Epoch Orbit636
Epoch Day169.5100221
Epoch Year2021
RAAN217.9729
Inclination34.9998
Eccentricity0.0004586
Argument of Perigee122.1054
Mean Anonmoly238.0106
Mean Motion14.8993716
Decay Rate1.49E-06
L11 48423U 21039A 21169.51002210 .00000149 00000-0 17973-4 0 9991
L22 48423 34.9998 217.9729 0004586 122.1054 238.0106 14.89937160 6363

Live tracking and technical data element details for YAOGAN-30 X (NORAD 48423). YAOGAN-30 X can be tracked NOW for your location showing map with azimuth and elevation plus other details from your city location.

Track the satellite on the map from your city or location and see movement details for azimuth, elevation, latitude, longitude, range, height, and movement on the map or in text.







IsCatalogInMostPopularTable: catalog: 48423, numindb: 21
Update: records affected: 1



GetName: 48423 YAOGAN-30 X

Hit Count: updated at: Mon, 21 Jun 2021 04:43:38 GMT